Weather History for Ft Lauderdale, FL

Change the Weather History Date:

Sunday, November 30, 2014

  Actual Average Record
Temperature  
Mean Temperature 75 °F 73 °F  
Max Temperature 79 °F 80 °F 89 °F (1977)
Min Temperature 71 °F 67 °F 40 °F (1959)
Degree Days  
Heating Degree Days 0 0  
Month to date heating degree days 10 0  
Since 1 July heating degree days 10 2  
Cooling Degree Days 10 9  
Month to date cooling degree days 254 319  
Year to date cooling degree days 4601 4513  
Growing Degree Days 25 (Base 50)    
Moisture  
Dew Point 58 °F    
Average Humidity 58    
Maximum Humidity 69    
Minimum Humidity 47    
Precipitation  
Precipitation T in 0.10 in 6.23 in (1925)
Month to date precipitation 2.92 3.24  
Year to date precipitation 59.36 59.72  
Snow  
Snow 0.00 in - - ()
Month to date snowfall 0.0  
Since 1 July snowfall 0.0  
Since 1 September snowfall 0.0  
Snow Depth 0.00 in    
Sea Level Pressure  
Sea Level Pressure 30.22 in    
Wind  
Wind Speed 15 mph (ENE)    
Max Wind Speed 22 mph    
Max Gust Speed 27 mph    
Visibility 10 miles    
Events      
T = Trace of Precipitation, MM = Missing Value Source: NWS Daily Summary

Daily Weather History Graph

Daily Weather History Graph

Search for Another Location

Airport:

Trip Planner

Search our weather history database for the weather conditions in past years. The results will help you decide how hot, cold, wet, or windy it might be!

Date:

Astronomy

Nov. 30, 2014 Rise Set
Actual Time 6:50 AM EST 5:28 PM EST
Civil Twilight 6:25 AM EST 5:53 PM EST
Nautical Twilight 5:56 AM EST 6:21 PM EST
Astronomical Twilight 5:28 AM EST 6:49 PM EST
Moon 1:25 PM EST (11/30) 12:54 AM EST (11/30)
Length of Visible Light 11h 28m
Length of Day
10h 38m
Waxing Gibbous, 64% of the Moon is Illuminated
Nov 30
Waxing Gibbous
Dec 6
Full
Dec 14
Last Quarter
Dec 21
New
Dec 28
First Quarter

Hourly Weather History & Observations

Time (EST) Temp. Dew Point Humidity Pressure Visibility Wind Dir Wind Speed Gust Speed Precip Events Conditions
12:53 AM 72.0 °F 55.0 °F 55% 30.21 in 10.0 mi East 11.5 mph - N/A   Partly Cloudy
1:53 AM 72.0 °F 55.9 °F 57% 30.20 in 10.0 mi East 10.4 mph - N/A   Scattered Clouds
2:53 AM 72.0 °F 57.0 °F 59% 30.19 in 10.0 mi East 13.8 mph - N/A   Scattered Clouds
3:53 AM 72.0 °F 57.0 °F 59% 30.19 in 10.0 mi ENE 10.4 mph - N/A   Scattered Clouds
4:53 AM 72.0 °F 57.0 °F 59% 30.20 in 10.0 mi ENE 10.4 mph - N/A   Scattered Clouds
5:53 AM 72.0 °F 57.9 °F 61% 30.21 in 10.0 mi ENE 15.0 mph - N/A   Scattered Clouds
6:53 AM 73.0 °F 57.9 °F 59% 30.23 in 10.0 mi East 13.8 mph 19.6 mph N/A   Scattered Clouds
7:53 AM 73.0 °F 55.9 °F 55% 30.25 in 10.0 mi East 16.1 mph 21.9 mph N/A   Scattered Clouds
8:53 AM 75.0 °F 57.9 °F 55% 30.26 in 10.0 mi East 18.4 mph - N/A   Scattered Clouds
9:53 AM 75.9 °F 57.0 °F 52% 30.28 in 10.0 mi ENE 15.0 mph 25.3 mph N/A   Scattered Clouds
10:53 AM 77.0 °F 55.9 °F 48% 30.27 in 10.0 mi ENE 19.6 mph 26.5 mph N/A   Partly Cloudy
11:53 AM 78.1 °F 57.0 °F 48% 30.25 in 10.0 mi East 18.4 mph - N/A   Partly Cloudy
12:53 PM 78.1 °F 57.9 °F 50% 30.22 in 10.0 mi East 18.4 mph 27.6 mph N/A   Scattered Clouds
1:53 PM 77.0 °F 57.0 °F 50% 30.21 in 10.0 mi ENE 16.1 mph 24.2 mph N/A   Partly Cloudy
2:53 PM 78.1 °F 57.9 °F 50% 30.20 in 10.0 mi ENE 15.0 mph 23.0 mph N/A   Mostly Cloudy
3:53 PM 75.9 °F 57.0 °F 52% 30.20 in 10.0 mi East 16.1 mph 20.7 mph N/A   Mostly Cloudy
4:53 PM 75.9 °F 57.0 °F 52% 30.20 in 10.0 mi ENE 12.7 mph - N/A   Mostly Cloudy
5:53 PM 75.0 °F 57.0 °F 53% 30.21 in 10.0 mi East 13.8 mph - N/A   Mostly Cloudy
6:53 PM 75.0 °F 60.1 °F 60% 30.21 in 10.0 mi ENE 16.1 mph 21.9 mph N/A   Mostly Cloudy
7:53 PM 75.0 °F 59.0 °F 57% 30.22 in 10.0 mi East 16.1 mph - N/A   Mostly Cloudy
8:53 PM 75.9 °F 61.0 °F 60% 30.22 in 10.0 mi East 17.3 mph 21.9 mph N/A   Mostly Cloudy
9:53 PM 75.0 °F 63.0 °F 66% 30.23 in 10.0 mi East 16.1 mph 24.2 mph N/A   Mostly Cloudy
10:53 PM 75.9 °F 64.0 °F 67% 30.23 in 10.0 mi ENE 16.1 mph 24.2 mph N/A   Mostly Cloudy
11:53 PM 75.0 °F 62.1 °F 64% 30.22 in 10.0 mi East 16.1 mph 23.0 mph 0.00 in   Overcast